TimePDT,TemperatureF,Dew PointF,Humidity,Sea Level PressureIn,VisibilityMPH,Wind Direction,Wind SpeedMPH,Gust SpeedMPH,PrecipitationIn,Events,Conditions,WindDirDegrees,DateUTC
12:55 AM,44.6,-9999,N/A,30.05,10.0,South,5.8,-,N/A,,Overcast,170,2012-10-12 07:55:00
1:15 AM,44.6,-9999,N/A,30.03,10.0,SSE,5.8,-,N/A,,Scattered Clouds,150,2012-10-12 08:15:00
1:35 AM,44.6,-9999,N/A,30.03,10.0,SSE,5.8,-,N/A,,Clear,160,2012-10-12 08:35:00
1:55 AM,41.0,-9999,N/A,30.02,10.0,NW,3.5,-,N/A,,Clear,320,2012-10-12 08:55:00
2:15 AM,39.2,-9999,N/A,30.04,10.0,ESE,4.6,-,N/A,,Clear,120,2012-10-12 09:15:00
2:35 AM,39.2,-9999,N/A,30.04,10.0,Calm,Calm,-,N/A,,Clear,0,2012-10-12 09:35:00
2:55 AM,39.2,-9999,N/A,30.04,10.0,SSE,3.5,-,N/A,,Clear,160,2012-10-12 09:55:00
3:15 AM,39.2,-9999,N/A,30.04,10.0,SW,3.5,-,N/A,,Clear,230,2012-10-12 10:15:00
3:35 AM,39.2,-9999,N/A,30.04,10.0,ESE,6.9,-,N/A,,Clear,110,2012-10-12 10:35:00
3:55 AM,39.2,-9999,N/A,30.03,10.0,Calm,Calm,-,N/A,,Mostly Cloudy,0,2012-10-12 10:55:00
4:15 AM,37.4,-9999,N/A,30.03,10.0,SW,6.9,-,N/A,,Mostly Cloudy,220,2012-10-12 11:15:00
4:35 AM,37.4,-9999,N/A,30.03,10.0,SW,5.8,-,N/A,,Clear,230,2012-10-12 11:35:00
4:55 AM,37.4,-9999,N/A,30.03,10.0,Calm,Calm,-,N/A,,Partly Cloudy,0,2012-10-12 11:55:00
5:15 AM,37.4,-9999,N/A,30.03,10.0,North,6.9,-,N/A,,Partly Cloudy,350,2012-10-12 12:15:00
5:35 AM,35.6,-9999,N/A,30.04,10.0,Calm,Calm,-,N/A,,Clear,0,2012-10-12 12:35:00
5:55 AM,35.6,-9999,N/A,30.05,10.0,Calm,Calm,-,N/A,,Clear,0,2012-10-12 12:55:00
6:15 AM,33.8,-9999,N/A,30.04,10.0,Calm,Calm,-,N/A,,Clear,0,2012-10-12 13:15:00
6:35 AM,33.8,-9999,N/A,30.05,10.0,ESE,5.8,-,N/A,,Clear,120,2012-10-12 13:35:00
6:55 AM,32.0,-9999,N/A,30.05,10.0,SE,3.5,-,N/A,,Clear,130,2012-10-12 13:55:00
7:15 AM,33.8,-9999,N/A,30.04,10.0,South,3.5,-,N/A,,Clear,190,2012-10-12 14:15:00
7:55 AM,32.0,-9999,N/A,30.06,10.0,SSE,4.6,-,N/A,,Clear,150,2012-10-12 14:55:00
8:15 AM,35.6,-9999,N/A,30.05,10.0,South,4.6,-,N/A,,Clear,190,2012-10-12 15:15:00
8:35 AM,35.6,-9999,N/A,30.05,10.0,South,3.5,-,N/A,,Clear,170,2012-10-12 15:35:00
9:15 AM,41.0,-9999,N/A,30.06,10.0,SSW,5.8,-,N/A,,Clear,200,2012-10-12 16:15:00
9:35 AM,44.6,-9999,N/A,30.06,10.0,SW,5.8,-,N/A,,Clear,230,2012-10-12 16:35:00
9:55 AM,44.6,-9999,N/A,30.05,10.0,SSW,4.6,-,N/A,,Clear,200,2012-10-12 16:55:00
10:15 AM,46.4,-9999,N/A,30.06,10.0,SSE,3.5,-,N/A,,Clear,160,2012-10-12 17:15:00
10:55 AM,50.0,-9999,N/A,30.05,10.0,Calm,Calm,-,N/A,,Clear,0,2012-10-12 17:55:00
11:35 AM,53.6,-9999,N/A,30.06,10.0,Calm,Calm,-,N/A,,Clear,0,2012-10-12 18:35:00
12:35 PM,57.2,-9999,N/A,30.05,10.0,Calm,Calm,-,N/A,,Partly Cloudy,0,2012-10-12 19:35:00
1:15 PM,59.0,-9999,N/A,30.04,10.0,Calm,Calm,-,N/A,,Partly Cloudy,0,2012-10-12 20:15:00
1:55 PM,62.6,-9999,N/A,30.03,10.0,Calm,Calm,-,N/A,,Scattered Clouds,0,2012-10-12 20:55:00
2:15 PM,60.8,-9999,N/A,30.02,10.0,WNW,5.8,-,N/A,,Partly Cloudy,290,2012-10-12 21:15:00
2:35 PM,62.6,-9999,N/A,30.02,10.0,Calm,Calm,-,N/A,,Partly Cloudy,0,2012-10-12 21:35:00
2:55 PM,62.6,-9999,N/A,30.02,10.0,NNW,8.1,-,N/A,,Partly Cloudy,330,2012-10-12 21:55:00
3:15 PM,59.0,-9999,N/A,30.02,10.0,NW,6.9,-,N/A,,Mostly Cloudy,310,2012-10-12 22:15:00
3:35 PM,59.0,-9999,N/A,30.02,10.0,West,9.2,-,N/A,,Mostly Cloudy,280,2012-10-12 22:35:00
4:15 PM,62.6,-9999,N/A,30.02,10.0,West,4.6,-,N/A,,Overcast,280,2012-10-12 23:15:00
4:55 PM,60.8,-9999,N/A,30.02,10.0,North,6.9,-,N/A,,Overcast,350,2012-10-12 23:55:00
5:15 PM,59.0,-9999,N/A,30.03,10.0,North,4.6,-,N/A,,Overcast,360,2012-10-13 00:15:00
5:35 PM,59.0,-9999,N/A,30.03,10.0,NW,4.6,-,N/A,,Overcast,310,2012-10-13 00:35:00
6:15 PM,59.0,-9999,N/A,30.04,10.0,NW,9.2,16.1,N/A,,Overcast,310,2012-10-13 01:15:00
6:35 PM,57.2,-9999,N/A,30.05,10.0,WNW,6.9,-,N/A,,Mostly Cloudy,290,2012-10-13 01:35:00
6:55 PM,55.4,-9999,N/A,30.06,10.0,WNW,8.1,-,N/A,,Partly Cloudy,300,2012-10-13 01:55:00
7:15 PM,55.4,-9999,N/A,30.07,10.0,NW,9.2,-,N/A,,Clear,320,2012-10-13 02:15:00
7:35 PM,53.6,-9999,N/A,30.08,10.0,WNW,8.1,-,N/A,,Clear,300,2012-10-13 02:35:00
7:55 PM,53.6,-9999,N/A,30.09,10.0,WNW,6.9,-,N/A,,Partly Cloudy,300,2012-10-13 02:55:00
8:15 PM,55.4,-9999,N/A,30.10,10.0,NNW,6.9,-,N/A,,Mostly Cloudy,330,2012-10-13 03:15:00
8:35 PM,55.4,-9999,N/A,30.12,10.0,ESE,3.5,-,N/A,,Overcast,110,2012-10-13 03:35:00
9:35 PM,55.4,-9999,N/A,30.17,10.0,NNW,10.4,17.3,N/A,,Overcast,340,2012-10-13 04:35:00
9:55 PM,50.0,-9999,N/A,30.18,4.0,NNW,4.6,-,N/A,,Overcast,330,2012-10-13 04:55:00
10:15 PM,48.2,-9999,N/A,30.18,10.0,North,5.8,-,N/A,,Mostly Cloudy,10,2012-10-13 05:15:00
10:35 PM,48.2,-9999,N/A,30.18,10.0,East,3.5,-,N/A,,Mostly Cloudy,80,2012-10-13 05:35:00
10:55 PM,48.2,-9999,N/A,30.18,10.0,SSE,6.9,-,N/A,,Partly Cloudy,160,2012-10-13 05:55:00
11:15 PM,46.4,-9999,N/A,30.17,10.0,South,4.6,-,N/A,,Mostly Cloudy,180,2012-10-13 06:15:00
11:35 PM,46.4,-9999,N/A,30.18,10.0,SSW,5.8,-,N/A,,Mostly Cloudy,210,2012-10-13 06:35:00